New York Downtown Manhattan/w, NY

10:01 PM EDT on October 18, 2019 (GMT -0400)
New York Downtown Manhattan/w

Weather History for KJRB - August, 2019

Change the Weather History Date:

Monday, August 26, 2019

  Actual Average (KEWR) Record (KEWR)
Temperature  
Mean Temperature 71 °F -  
Max Temperature 78 °F 83 °F 103 °F (1948)
Min Temperature 64 °F 66 °F 51 °F (1942)
Cooling Degree Days 6    
Growing Degree Days 21 (Base 50)    
Moisture  
Dew Point 57 °F    
Average Humidity 67    
Maximum Humidity 78    
Minimum Humidity 46    
Precipitation  
Precipitation 0.00 in - - ()
Sea Level Pressure  
Sea Level Pressure 30.20 in    
Wind  
Wind Speed 10 mph ()    
Max Wind Speed 16 mph    
Max Gust Speed 23 mph    
Visibility 10.0 miles    
Events      
Averages and records for this station are not official NWS values.
T = Trace of Precipitation, MM = Missing Value Source: Averaged Metar Reports

Daily Weather History Graph

Daily Weather History Graph

Search for Another Location

Airport or City:

Astronomy

Aug. 26, 2019 Rise Set
Actual Time 6:16 AM EDT 7:38 PM EDT
Civil Twilight 5:48 AM EDT 8:06 PM EDT
Nautical Twilight 5:14 AM EDT 8:40 PM EDT
Astronomical Twilight 4:38 AM EDT 9:16 PM EDT
Moon 1:38 AM EDT (8/26) 5:00 PM EDT (8/26)
Length of Visible Light 14h 18m
Length of Day
13h 21m
Waning Crescent, 19% of the Moon is Illuminated
Aug 26
Waning Crescent
Aug 30
New
Sep 5
First Quarter
Sep 14
Full
Sep 21
Last Quarter

Hourly Weather History & Observations

Time (EDT) Temp. Dew Point Humidity Pressure Visibility Wind Dir Wind Speed Gust Speed Precip Events Conditions
12:56 AM 66.9 °F 55.0 °F 66% 30.22 in 10.0 mi NE 13.8 mph - N/A   Clear
1:56 AM 66.9 °F 57.0 °F 70% 30.21 in 10.0 mi NE 13.8 mph 23.0 mph N/A   Clear
2:56 AM 66.0 °F 57.0 °F 73% 30.21 in 10.0 mi NNE 12.7 mph - N/A   Clear
3:56 AM 64.0 °F 55.9 °F 75% 30.21 in 10.0 mi NNE 9.2 mph - N/A   Clear
4:18 AM 64.4 °F 55.4 °F 73% 30.21 in 10.0 mi NE 8.1 mph - N/A   Mostly Cloudy
4:56 AM 64.0 °F 55.9 °F 75% 30.21 in 10.0 mi NE 12.7 mph - N/A   Overcast
5:56 AM 64.0 °F 55.9 °F 75% 30.22 in 10.0 mi NNE 11.5 mph 17.3 mph N/A   Overcast
6:56 AM 64.0 °F 57.0 °F 78% 30.23 in 10.0 mi NNE 12.7 mph - N/A   Overcast
7:56 AM 64.9 °F 57.0 °F 75% 30.24 in 10.0 mi NNE 10.4 mph - N/A   Overcast
8:56 AM 64.9 °F 57.0 °F 75% 30.23 in 10.0 mi ENE 16.1 mph - N/A   Overcast
9:56 AM 66.9 °F 55.9 °F 68% 30.24 in 10.0 mi NNE 12.7 mph - N/A   Mostly Cloudy
10:56 AM 69.1 °F 55.9 °F 63% 30.23 in 10.0 mi NE 13.8 mph 19.6 mph N/A   Overcast
11:44 AM 71.6 °F 55.4 °F 57% 30.23 in 10.0 mi NNE 11.5 mph 18.4 mph N/A   Scattered Clouds
11:56 AM 72.0 °F 55.9 °F 57% 30.23 in 10.0 mi ENE 10.4 mph 20.7 mph N/A   Partly Cloudy
12:56 PM 73.9 °F 57.0 °F 55% 30.22 in 10.0 mi NE 12.7 mph 17.3 mph N/A   Clear
1:56 PM 75.9 °F 55.9 °F 50% 30.21 in 10.0 mi NE 9.2 mph 16.1 mph N/A   Clear
2:56 PM 78.1 °F 55.9 °F 46% 30.18 in 10.0 mi NE 8.1 mph - N/A   Clear
3:56 PM 73.9 °F 61.0 °F 64% 30.18 in 10.0 mi WSW 10.4 mph - N/A   Mostly Cloudy
4:56 PM 73.9 °F 60.1 °F 62% 30.16 in 10.0 mi Variable 3.5 mph - N/A   Overcast
5:56 PM 73.0 °F 60.1 °F 64% 30.15 in 10.0 mi SSE 6.9 mph - N/A   Overcast
6:56 PM 72.0 °F 59.0 °F 64% 30.14 in 10.0 mi SE 5.8 mph - N/A   Overcast
7:56 PM 71.1 °F 60.1 °F 68% 30.15 in 10.0 mi Variable 4.6 mph - N/A   Partly Cloudy
8:56 PM 70.0 °F 61.0 °F 73% 30.17 in 10.0 mi SE 4.6 mph - N/A   Clear
9:56 PM 69.1 °F 60.1 °F 73% 30.16 in 10.0 mi NE 8.1 mph - N/A   Clear
10:56 PM 68.0 °F 59.0 °F 73% 30.16 in 10.0 mi Variable 6.9 mph - N/A   Clear
11:56 PM 68.0 °F 59.0 °F 73% 30.16 in 10.0 mi ENE 6.9 mph - N/A   Clear